Regional Weather Roundup
Issued by NWS

Home | Current Version | Previous Version | Text Only | Print | Product List | Glossary Off
Versions: 1 2 3 4 5 6 7 8 9 10 11 12 13 14 15 16 17 18 19 20 21 22 23 24 25 26 27 28 29 30 31 32 33 34 35 36 37 38 39 40 41 42 43 44 45 46 47 48 49 50

000
ASUS43 KLSX 222259
RWRMO

WEATHER SUMMARY FOR MISSOURI
NATIONAL WEATHER SERVICE SPRINGFIELD MO
500 PM CST SAT NOV 22 2014

NOTE: "FAIR" INDICATES FEW OR NO CLOUDS BELOW 12,000 FEET WITH NO
       SIGNIFICANT WEATHER AND/OR OBSTRUCTIONS TO VISIBILITY.
       CURRENT SKY AND/OR WEATHER CONDITIONS ARE NOT AVAILABLE FOR
       CHILLICOTHE AND FARMINGTON.

MOZ001>031-035>038-043-044-053-054-230000-
...NORTHERN AND WESTERN MISSOURI...

CITY           SKY/WX    TMP DP  RH WIND       PRES   REMARKS
KANSAS CTY INT MOCLDY    57  51  80 S18       29.77F
KANSAS C DTWN  CLOUDY    59  51  75 S12       29.79F
ST JOSEPH      CLOUDY    57  53  86 S14       29.75F
CHILLICOTHE      N/A     61  51  70 S10       29.80F
KIRKSVILLE     CLOUDY    58  51  78 S12       29.82F

$$
MOZ066>068-077>081-088>096-101>105-230000-
...SOUTHWEST MISSOURI...

CITY           SKY/WX    TMP DP  RH WIND       PRES   REMARKS
SPRINGFIELD    CLOUDY    54  51  90 S15       29.88F
JOPLIN         CLOUDY    55  51  86 S10       29.84R

$$
MOZ032>034-039>042-045>050-055>058-069>072-230000-
...CENTRAL MISSOURI...

CITY           SKY/WX    TMP DP  RH WIND       PRES   REMARKS
COLUMBIA       CLOUDY    57  50  77 S13       29.87F
JEFFERSON CITY CLOUDY    58  50  75 S9        29.88F
ROLLA          CLOUDY    52  50  93 S12       29.89F
SEDALIA        CLOUDY    57  50  77 S10       29.84F
WHITEMAN AFB   CLOUDY    56  51  82 S9        29.81F
WARRENSBURG    CLOUDY    55  50  82 S8        29.82F
OSAGE BEACH    CLOUDY    55  50  82 SE7       29.87F

$$
MOZ051-052-059>065-230000-
...EAST CENTRAL MISSOURI...

CITY           SKY/WX    TMP DP  RH WIND       PRES   REMARKS
ST LOUIS INTL  CLOUDY    55  49  80 S6        29.95F
SPIRIT OF STL  CLOUDY    54  50  86 SE5       29.93F
ST CHARLES     CLOUDY    52  49  89 S7        29.94F

$$
MOZ072>076-082>087-097>100-106>115-230000-
...SOUTH CENTRAL AND SOUTHEAST MISSOURI...

CITY           SKY/WX    TMP DP  RH WIND       PRES   REMARKS
CAPE GIRARDEAU CLOUDY    60  43  53 S7        30.02F
FARMINGTON     CLOUDY    54  48  82 SE13      30.00F
POPLAR BLUFF   CLOUDY    57  46  66 S6        30.01F
WEST PLAINS    LGT RAIN  51  49  92 S10       30.01R

$$



USA.gov is the U.S. government's official web portal to all federal, state and local government web resources and services.